Greybull, WY

11:45 PM MST on February 26, 2017 (GMT -0700)
South Big Horn County

Weather History for KGEY - December, 2011

Change the Weather History Date:

Thursday, December 29, 2011

  Actual Average Record
Temperature  
Mean Temperature 36 °F 16 °F  
Max Temperature 46 °F 28 °F 47 °F (2011)
Min Temperature 24 °F 5 °F -13 °F (2016)
Degree Days  
Heating Degree Days 29 49  
Month to date heating degree days 1369  
Since 1 July heating degree days 3226  
Cooling Degree Days 0 0  
Month to date cooling degree days 0  
Year to date cooling degree days 669  
Moisture  
Dew Point 24 °F    
Average Humidity 70    
Maximum Humidity 93    
Minimum Humidity 34    
Precipitation  
Precipitation 0.01 in 0.01 in 0.07 in (2005)
Month to date precipitation 0.27  
Year to date precipitation 7.50  
Sea Level Pressure  
Sea Level Pressure 29.84 in    
Wind  
Wind Speed 7 mph (WNW)    
Max Wind Speed 28 mph    
Max Gust Speed 50 mph    
Visibility 10 miles    
Events Rain    
T = Trace of Precipitation, MM = Missing Value Source: NWS Daily Summary

Daily Weather History Graph

Daily Weather History Graph

Search for Another Location

Airport or City:

Trip Planner

Search our weather history database for the weather conditions in past years. The results will help you decide how hot, cold, wet, or windy it might be!

Date:

Astronomy

Dec. 29, 2011 Rise Set
Actual Time 7:48 AM MST 4:40 PM MST
Civil Twilight 7:15 AM MST 5:13 PM MST
Nautical Twilight 6:38 AM MST 5:50 PM MST
Astronomical Twilight 6:02 AM MST 6:25 PM MST
Moon 10:30 AM MST (12/29) 10:34 PM MST (12/29)
Length of Visible Light 9h 58m
Length of Day
8h 51m
Waxing Crescent, 27% of the Moon is Illuminated
Dec 29
Waxing Crescent
Dec 31
First Quarter
Jan 9
Full
Jan 16
Last Quarter
Jan 23
New

Hourly Weather History & Observations

Time (MST) Temp. Windchill Dew Point Humidity Pressure Visibility Wind Dir Wind Speed Gust Speed Precip Events Conditions
12:53 AM 28.9 °F 22.8 °F 24.1 °F 82% 29.86 in 10.0 mi SW 5.8 mph - N/A   Clear
1:53 AM 28.9 °F - 24.1 °F 82% 29.82 in 10.0 mi Calm Calm - N/A   Clear
2:53 AM 28.0 °F 22.8 °F 24.1 °F 85% 29.81 in 10.0 mi SSE 4.6 mph - N/A   Partly Cloudy
3:53 AM 28.9 °F 23.9 °F 24.1 °F 82% 29.79 in 10.0 mi Variable 4.6 mph - N/A   Clear
4:53 AM 28.9 °F - 24.1 °F 82% 29.78 in 10.0 mi Calm Calm - N/A   Overcast
5:53 AM 28.0 °F 24.2 °F 24.1 °F 85% 29.73 in 10.0 mi SSE 3.5 mph - N/A   Partly Cloudy
6:53 AM 26.1 °F 18.4 °F 23.0 °F 88% 29.73 in 10.0 mi South 6.9 mph - N/A   Partly Cloudy
8:53 AM 27.0 °F 18.7 °F 23.0 °F 85% 29.72 in 10.0 mi NNW 8.1 mph - 0.00 in   Overcast
9:53 AM 39.0 °F 29.3 °F 32.0 °F 76% 29.72 in 10.0 mi NNW 19.6 mph 26.5 mph 0.00 in   Mostly Cloudy
10:53 AM 43.0 °F 34.2 °F 27.0 °F 53% 29.69 in 10.0 mi NNW 20.7 mph 33.4 mph N/A   Overcast
11:18 AM 37.4 °F 25.4 °F 30.2 °F 75% 29.73 in 3.0 mi NW 27.6 mph 49.5 mph 0.00 in Rain Light Rain
11:42 AM 35.6 °F 27.1 °F 33.8 °F 93% 29.73 in 10.0 mi NNW 12.7 mph - 0.01 in   Overcast
11:53 AM 36.0 °F 28.5 °F 34.0 °F 93% 29.78 in 10.0 mi NW 10.4 mph - 0.01 in   Mostly Cloudy
12:53 PM 41.0 °F 36.4 °F 33.1 °F 73% 29.78 in 10.0 mi West 6.9 mph - N/A   Scattered Clouds
1:53 PM 43.0 °F - 33.1 °F 68% 29.79 in 10.0 mi Calm Calm - N/A   Clear
2:53 PM 46.0 °F 39.6 °F 19.0 °F 34% 29.81 in 10.0 mi WNW 15.0 mph - N/A   Clear
3:53 PM 44.1 °F 37.1 °F 17.1 °F 34% 29.83 in 10.0 mi WNW 15.0 mph 24.2 mph N/A   Clear
4:53 PM 39.0 °F 32.8 °F 19.0 °F 45% 29.88 in 10.0 mi NW 9.2 mph - N/A   Clear
5:53 PM 34.0 °F 27.2 °F 18.0 °F 52% 29.95 in 10.0 mi NW 8.1 mph - N/A   Clear
6:53 PM 33.1 °F 27.7 °F 17.1 °F 52% 29.97 in 10.0 mi WNW 5.8 mph - N/A   Clear
7:53 PM 32.0 °F 24.8 °F 19.0 °F 59% 30.00 in 10.0 mi West 8.1 mph - N/A   Clear
8:53 PM 28.9 °F - 18.0 °F 64% 30.03 in 10.0 mi Calm Calm - N/A   Clear
9:53 PM 28.9 °F 23.9 °F 18.0 °F 64% 30.00 in 10.0 mi East 4.6 mph - N/A   Clear
10:53 PM 27.0 °F 20.5 °F 16.0 °F 63% 30.00 in 10.0 mi ESE 5.8 mph - N/A   Clear
11:53 PM 24.1 °F 19.7 °F 16.0 °F 71% 30.01 in 10.0 mi SE 3.5 mph - N/A   Clear